PST,Max TemperatureF,Mean TemperatureF,Min TemperatureF,Max Dew PointF,MeanDew PointF,Min DewpointF,Max Humidity, Mean Humidity, Min Humidity, Max Sea Level PressureIn, Mean Sea Level PressureIn, Min Sea Level PressureIn, Max VisibilityMiles, Mean VisibilityMiles, Min VisibilityMiles, Max Wind SpeedMPH, Mean Wind SpeedMPH, Max Gust SpeedMPH,PrecipitationIn, CloudCover, Events, WindDirDegrees
2012-12-1,66,63,60,59,58,57,94,82,73,30.19,30.14,30.10,10,10,8,9,3,,0.00,7,,213
2012-12-2,64,62,59,61,59,57,100,93,77,30.16,30.12,30.09,10,6,1,7,2,,0.00,8,Rain,199
2012-12-3,68,64,59,61,59,55,100,83,64,30.20,30.16,30.12,10,9,2,7,3,,0.00,6,Rain,128
2012-12-4,68,62,55,57,56,54,94,77,64,30.26,30.19,30.15,9,7,5,8,2,,0.00,1,,196
2012-12-5,64,57,50,57,55,50,100,87,73,30.15,30.08,30.02,8,4,0,10,3,,0.00,3,Fog,206
2012-12-6,66,62,57,55,54,54,94,79,64,30.02,29.95,29.89,6,4,3,7,4,,0.00,5,,86
2012-12-7,68,59,50,57,55,50,100,83,64,29.99,29.96,29.92,4,3,0,9,3,,0.00,0,Fog,192
2012-12-8,68,59,50,55,52,50,100,79,56,30.02,29.96,29.91,4,3,1,5,1,,0.00,3,Fog,176
2012-12-9,68,56,44,54,50,45,100,72,49,30.09,30.05,30.00,5,3,2,9,1,,0.00,1,,208
2012-12-10,73,60,48,45,39,32,82,42,22,30.15,30.09,30.04,10,10,8,6,1,,0.00,0,,197
2012-12-11,71,58,46,54,44,36,88,53,28,30.08,30.00,29.95,10,10,8,8,2,,0.00,0,,196
2012-12-12,59,56,53,54,49,46,94,73,63,29.98,29.92,29.87,10,8,5,7,3,,0.00,8,Rain,77
2012-12-13,59,55,48,54,47,41,100,76,58,29.82,29.79,29.76,10,9,4,10,3,,0.00,5,,212
2012-12-14,57,50,44,54,40,36,94,62,44,30.00,29.93,29.89,10,10,8,12,5,,0.00,5,Rain,195
2012-12-15,59,52,44,43,38,30,93,55,34,30.06,30.02,30.00,10,10,10,6,3,,0.00,1,,257
2012-12-16,57,55,53,50,46,41,88,71,58,30.19,30.15,30.13,10,10,5,8,4,,0.00,7,,81
2012-12-17,62,56,50,50,49,48,94,69,59,30.19,30.10,30.03,10,10,10,12,2,,0.00,6,,217
2012-12-18,62,58,50,55,40,21,100,58,28,29.94,29.86,29.80,10,9,2,20,9,22,0.00,4,Rain,245
2012-12-19,59,49,39,30,21,12,65,33,17,30.24,30.21,30.18,10,10,10,5,1,,0.00,0,,167
2012-12-20,66,56,46,28,21,14,43,26,14,30.24,30.14,30.09,10,10,10,13,8,21,0.00,0,,52
2012-12-21,64,52,39,41,31,23,71,41,25,30.14,30.08,30.04,10,10,10,5,2,,0.00,0,,199
2012-12-22,60,50,39,46,38,32,75,54,34,30.18,30.15,30.12,10,10,10,7,2,,0.00,4,,219
2012-12-23,62,56,51,50,48,45,77,69,52,30.24,30.17,30.13,10,10,10,9,3,,0.00,7,,196
2012-12-24,62,58,53,54,53,52,100,87,72,30.11,30.05,30.00,10,8,2,9,3,,0.00,6,Rain,87
2012-12-25,60,55,50,50,40,32,94,57,34,30.12,30.05,30.00,10,9,5,6,3,,0.00,0,,62
2012-12-26,62,55,48,50,43,37,100,63,42,29.99,29.95,29.91,10,9,4,13,6,,0.00,2,,224
2012-12-27,62,52,41,41,35,30,87,51,30,30.04,30.00,29.95,10,10,10,14,3,21,0.00,0,,310
2012-12-28,62,54,46,36,30,27,66,38,27,30.19,30.12,30.08,10,10,10,7,3,,0.00,0,,182
2012-12-29,50,47,44,45,40,32,93,78,57,30.11,30.05,29.99,10,6,2,12,5,,0.00,7,Rain-Thunderstorm,43
2012-12-30,55,46,37,41,39,37,100,69,54,30.03,29.97,29.92,10,10,8,6,2,,0.00,2,,127
2012-12-31,57,47,37,39,33,30,87,51,36,30.24,30.21,30.18,10,10,10,8,3,,0.00,0,,193